Regional Weather Roundup
Issued by NWS

Home | Current Version | Previous Version | Graphics & Text | Print | Product List | Glossary On
Versions: 1 2 3 4 5 6 7 8 9 10 11 12 13 14 15 16 17 18 19 20 21 22 23 24 25 26 27 28 29 30 31 32 33 34 35 36 37 38 39 40 41 42 43 44 45 46 47 48 49 50
000
ASUS43 KFSD 150310
RWRSD

WEATHER ROUNDUP FOR SOUTH DAKOTA
NATIONAL WEATHER SERVICE SIOUX FALLS SD
900 PM CST THU DEC 14 2017

NOTE: "FAIR" INDICATES FEW OR NO CLOUDS BELOW 12,000 FEET WITH NO
SIGNIFICANT WEATHER AND/OR OBSTRUCTIONS TO VISIBILITY.


SDZ001>005-009-010-012>017-150400-
NORTHWEST AND NORTH CENTRAL SOUTH DAKOTA

CITY           SKY/WX    TMP DP  RH WIND       PRES   REMARKS
BUFFALO          N/A     20  16  84 W9        30.03F WCI   9
FAITH            N/A     27  22  81 W8        30.11F WCI  19
MOBRIDGE       CLOUDY    34  25  69 W9        30.06F WCI  27
$$

SDZ012>016-024>037-041>051-057-063-072>074-150400-
SOUTHWEST AND SOUTH CENTRAL SOUTH DAKOTA

CITY           SKY/WX    TMP DP  RH WIND       PRES   REMARKS
RAPID CTY ARPT CLEAR     24  15  68 CALM      30.14F
PIERRE         CLOUDY    32  25  75 W12       30.12F WCI  23
CUSTER         CLOUDY    19  13  77 SW6       30.09F WCI  11
ELLSWORTH AFB  CLEAR     23  15  71 SW6       30.13F WCI  15
PHILIP         CLOUDY    32  27  81 W7        30.16F WCI  26
PINE RIDGE     CLEAR     22  20  92 SW3       30.18F
SPEARFISH      FAIR      30  18  59 W12       30.12F WCI  21
WINNER         CLOUDY    33  26  75 W10       30.16S WCI  25
$$

SDZ004>011-016>023-039-040-150400-
NORTHEAST SOUTH DAKOTA

CITY           SKY/WX    TMP DP  RH WIND       PRES   REMARKS
ABERDEEN       CLOUDY    30  26  85 W7        30.06F WCI  23
WATERTOWN      CLOUDY    26  23  88 W9        30.03F WCI  17
BROOKINGS      CLOUDY    26  22  84 W8        30.06F WCI  18
SISSETON         N/A     30  25  81 W13       30.02F WCI  20
$$

SDZ017-020-022-023-036>040-048>070-150400-
SOUTHEAST SOUTH DAKOTA

CITY           SKY/WX    TMP DP  RH WIND       PRES   REMARKS
SIOUX FALLS    CLOUDY    28  23  81 NW7       30.09F WCI  21
HURON          CLOUDY    28  25  88 SW6       30.10F WCI  22
CHAMBERLAIN    CLOUDY    32  30  93 W8        30.14F WCI  25
MITCHELL       CLOUDY    29  26  89 W6        30.14S WCI  23
YANKTON        PTCLDY    27  25  92 NW8       30.15R WCI  19
$$

ABBREVIATIONS USED IN REMARKS
   TC - TEMPERATURE IN CELSIUS
  WCI - WIND CHILL INDEX
   HX - HEAT INDEX
  VSB - VISIBILITY





USA.gov is the U.S. government's official web portal to all federal, state and local government web resources and services.